[[{"header":{"parameterUnit":"m.s-1","parameterCategory":1,"la1":30.2991,"la2":30.254,"lo1":-89.0895,"lo2":-89.0444,"dy":0.0017,"dx":0.0017,"nx":28,"ny":28,"refTime":"2025-06-08T21:00:00:Z","depth":0,"parameterNumber":2,"parameterNumberName":"U-component_of_WINDS"},"data":[0,0,0,0,0,0,0,0,0,0,0,0,0,0,0,0,0,0,0,0,0,0,0,0,0,0,0,0,0,0,0,0,0,0,0,0,0,0,0,0,0,0,0,0,0,0,0,0,0,0,0,0,0,0,0,0,0,0,5.5019,5.5021,0,5.5215,5.5217,5.5219,5.5189,5.5186,5.5182,5.5179,5.5383,5.5391,5.5399,0,0,0,0,0,0,0,0,0,0,0,0,0,5.4616,5.4624,5.5018,5.5021,5.5023,5.5215,5.5217,5.522,5.519,5.5186,5.5182,5.5178,5.538,5.539,5.54,0,0,0,0,0,0,0,0,0,0,0,0,0,5.48,5.4626,5.5018,5.5031,5.5034,5.5214,5.5217,5.5221,5.5191,5.5186,5.5181,5.5176,5.5376,5.5389,5.5401,5.5581,0,0,5.5441,5.5446,0,0,0,0,0,0,0,0,5.4789,5.4814,5.5027,5.5031,5.5034,5.5172,5.515,5.5342,5.5192,5.5131,5.5179,5.5173,5.5317,5.5334,5.5382,5.559,5.5599,5.5442,5.5449,5.5455,5.5459,0,0,0,0,0,0,0,5.4777,5.4806,5.5096,5.503,5.5035,5.5027,5.5048,5.5186,5.525,5.5136,5.5134,5.5158,5.5318,5.537,5.5387,5.5602,5.5441,5.5453,5.5461,5.5466,5.5963,5.5968,0,0,0,0,0,0,5.476,5.4795,5.509,5.5102,5.4897,5.5038,5.5061,5.5133,5.5248,5.5261,5.5162,5.5156,5.535,5.5372,5.5394,5.5608,5.5455,5.5467,5.5474,5.5958,5.5964,5.597,0,0,0,0,0,0,5.4752,5.4787,5.5082,5.4948,5.4985,5.5051,5.5132,5.514,5.5191,5.5268,5.5279,5.5203,5.5347,5.5376,5.5533,5.5615,5.5473,5.5484,5.5951,5.596,5.5967,5.604,0,0,0,0,0,0,5.474,5.4784,5.4853,5.495,5.4993,5.5219,5.5137,5.5147,5.5213,5.5207,5.531,5.5322,5.5346,5.5514,5.5546,5.563,5.5494,5.5944,5.5955,5.5965,5.6031,5.605,5.6066,0,0,0,0,0,5.4726,5.4867,5.4857,5.4892,5.5081,5.5224,5.5248,5.5272,5.522,5.529,5.5338,5.5319,5.5601,5.5531,5.5566,5.5655,5.5939,5.5952,5.5964,5.6023,5.6046,5.6066,0,0,0,0,0,0,5.478,5.488,5.487,5.5047,5.5127,5.5218,5.5307,5.5297,5.5393,5.5384,5.541,5.5433,5.5592,5.564,5.556,5.5832,5.5763,5.5783,5.5795,5.5818,5.5836,5.582,5.5505,0,0,0,0,0,5.4812,5.492,5.5002,5.515,5.519,5.5242,5.5305,5.5316,5.54,5.5434,5.5495,5.5577,5.5684,5.5754,5.5857,5.6038,5.6058,5.6116,5.6134,5.6148,5.6164,5.6259,5.6285,5.6011,5.6011,5.6011,0,0,5.488,5.4948,5.5015,5.5162,5.5226,5.5335,5.5271,5.5391,5.5472,5.5453,5.5604,5.5651,5.5745,5.5914,5.5991,5.5958,5.6244,5.6164,5.6174,5.6183,5.6275,5.63,5.6323,5.602,5.6018,5.6017,0,0,5.506,5.5123,5.5252,5.5316,5.5411,5.5444,5.5475,5.5568,5.5597,5.5749,5.5736,5.5833,5.6018,5.6084,5.6142,5.6343,5.6327,5.6376,5.6468,5.656,5.6582,5.6601,5.6669,5.6693,5.6392,5.6393,5.6393,0,5.5132,5.5297,5.5319,5.544,5.5503,5.5489,5.5618,5.568,5.5805,5.5849,5.581,5.6038,5.6101,5.6283,5.6331,5.638,5.6414,5.6363,5.6577,5.6596,5.6614,5.668,5.6706,5.6398,5.6397,5.6396,5.6396,0,5.538,5.5494,5.5587,5.5705,5.578,5.5904,5.5944,5.6016,5.6021,5.6057,5.621,5.6284,5.64,5.6444,5.6451,5.6627,5.6602,5.6571,5.65,5.6645,5.6706,5.6732,5.6405,5.6403,5.6401,5.64,0,0,5.56,5.5726,5.5759,5.5811,5.5914,5.6003,5.6126,5.6237,5.6297,5.6384,5.6486,5.6641,5.661,5.6676,5.6689,5.6771,5.692,5.6728,5.673,5.6758,5.7114,5.7135,5.7164,5.6911,5.6916,5.692,5.7105,0,5.5786,5.6002,5.6024,5.6216,5.632,5.6307,5.6413,5.6487,5.6524,5.6617,5.6658,5.6766,5.672,5.6758,5.6838,5.6885,5.6991,5.6872,5.7004,5.7008,5.6978,5.7197,5.7221,5.7392,5.7129,5.7133,5.7136,0,5.6034,5.6124,5.6326,5.6411,5.6455,5.655,5.6652,5.6742,5.6825,5.6846,5.6917,5.6919,5.7044,5.697,5.7141,5.7059,5.7114,5.7145,5.7152,5.7163,5.7079,5.7211,5.7447,5.7471,5.7175,5.7172,5.7169,0,5.6169,5.6342,5.6484,5.6529,5.6633,5.6699,5.6745,5.6823,5.6888,5.6977,5.7018,5.7122,5.7178,5.7258,5.7287,5.7231,5.7455,5.7385,5.7474,5.7473,5.752,5.7516,5.7766,5.7561,5.756,5.756,5.7559,0,5.6373,5.6497,5.6545,5.6632,5.6769,5.6793,5.6927,5.6971,5.7039,5.7134,5.713,5.7219,5.7253,5.7347,5.737,5.7506,5.7532,5.7551,5.7555,5.755,5.7547,5.7585,5.7572,5.7567,5.7565,5.7564,5.7563,0,5.6547,5.6585,5.6738,5.6823,5.6847,5.6943,5.7015,5.7099,5.7133,5.7252,5.7282,5.7336,5.7446,5.7483,5.7617,5.7633,5.7789,5.7785,5.7761,5.7761,5.7846,5.7836,5.8126,5.8164,5.7937,5.7939,5.7941,0,5.6674,5.6768,5.6862,5.6924,5.6972,5.7073,5.7137,5.7164,5.7231,5.733,5.7401,5.751,5.7598,5.7774,5.7825,5.7926,5.7923,5.8017,5.7938,5.7928,5.792,5.7912,5.792,5.8031,5.8034,5.8036,5.8037,0,5.6894,5.6907,5.7,5.7099,5.7176,5.7256,5.7333,5.7384,5.7421,5.7497,5.7608,5.7676,5.7811,5.7917,5.802,5.8067,5.8058,5.8062,5.8087,5.8081,5.8061,5.8069,5.7798,5.8055,5.8053,5.8052,5.8051,5.805,5.7046,5.7127,5.7204,5.7307,5.7367,5.7438,5.7519,5.7563,5.7655,5.7766,5.7776,5.7895,5.7972,5.8109,5.8161,5.8254,5.8227,5.8265,5.8274,5.8282,5.8287,5.8048,5.8273,5.8273,5.8272,5.8272,5.8272,0,5.7263,5.7311,5.7405,5.7511,5.7591,5.7574,5.7658,5.7726,5.783,5.7903,5.7988,5.8114,5.8217,5.8275,5.8377,5.844,5.8438,5.8466,5.846,5.847,5.8307,5.8273,5.8465,5.8465,5.8465,5.8465,5.8465,5.8465,5.7384,5.7519,5.7541,5.7705,5.7752,5.7868,5.7916,5.7981,5.8038,5.8178,5.8263,5.8299,5.8366,5.8472,5.8565,5.8579,5.8616,5.8646,5.8657,5.8502,5.8482,5.8463,5.8431,5.8654,5.8655,5.8812,5.8814,5.8815]},{"header":{"parameterUnit":"m.s-1","parameterCategory":1,"la1":30.2991,"la2":30.254,"lo1":-89.0895,"lo2":-89.0444,"dy":0.0017,"dx":0.0017,"nx":28,"ny":28,"refTime":"2025-06-08T21:00:00:Z","depth":0,"parameterNumber":3,"parameterNumberName":"V-component_of_WINDS"},"data":[0,0,0,0,0,0,0,0,0,0,0,0,0,0,0,0,0,0,0,0,0,0,0,0,0,0,0,0,0,0,0,0,0,0,0,0,0,0,0,0,0,0,0,0,0,0,0,0,0,0,0,0,0,0,0,0,0,0,3.6942,3.6943,0,3.7027,3.7028,3.7029,3.697,3.6968,3.6965,3.6963,3.705,3.7055,3.706,0,0,0,0,0,0,0,0,0,0,0,0,0,3.6729,3.6733,3.6942,3.6943,3.6944,3.7027,3.7028,3.7029,3.6971,3.6968,3.6964,3.6961,3.7049,3.7055,3.706,0,0,0,0,0,0,0,0,0,0,0,0,0,3.6818,3.6734,3.6942,3.6925,3.6924,3.7026,3.7028,3.7029,3.6972,3.6968,3.6964,3.696,3.7047,3.7054,3.7061,3.7185,0,0,3.7083,3.7086,0,0,0,0,0,0,0,0,3.6813,3.6826,3.6926,3.6926,3.6926,3.6984,3.6985,3.7081,3.6973,3.6954,3.6963,3.6958,3.7032,3.704,3.7064,3.7189,3.7192,3.7084,3.7088,3.7091,3.7093,0,0,0,0,0,0,0,3.6807,3.6822,3.6975,3.6928,3.6927,3.6913,3.6921,3.7003,3.7014,3.6955,3.6951,3.6962,3.7031,3.7058,3.7066,3.7194,3.7083,3.709,3.7094,3.7097,3.7422,3.7426,0,0,0,0,0,0,3.6802,3.6817,3.6973,3.6978,3.6859,3.692,3.6929,3.6969,3.7013,3.7016,3.6965,3.6959,3.7047,3.7058,3.7069,3.7215,3.7091,3.7098,3.7102,3.7418,3.7423,3.7427,0,0,0,0,0,0,3.6798,3.6817,3.6969,3.6897,3.6915,3.6928,3.6973,3.6973,3.7,3.702,3.7022,3.6991,3.7045,3.7059,3.7156,3.7218,3.7101,3.7108,3.7412,3.7419,3.7425,3.751,0,0,0,0,0,0,3.6792,3.6816,3.6863,3.6898,3.6919,3.7055,3.6977,3.6978,3.7012,3.7005,3.7045,3.7048,3.7043,3.7145,3.7163,3.7225,3.7113,3.7407,3.7415,3.7423,3.7502,3.7519,3.7533,0,0,0,0,0,3.6785,3.6884,3.6866,3.6885,3.6978,3.7059,3.7071,3.7063,3.7018,3.7065,3.7078,3.7046,3.7208,3.7156,3.7175,3.7241,3.7403,3.7413,3.7422,3.7495,3.7515,3.7533,0,0,0,0,0,0,3.6856,3.6888,3.6868,3.6982,3.7018,3.7049,3.7109,3.7085,3.7135,3.7126,3.7114,3.7124,3.7225,3.7242,3.7184,3.7362,3.7298,3.7312,3.7347,3.7366,3.7382,3.7375,3.7119,0,0,0,0,0,3.6885,3.6948,3.6972,3.707,3.7089,3.7096,3.7131,3.7121,3.7158,3.7174,3.7193,3.7231,3.729,3.7329,3.7384,3.7504,3.7511,3.7558,3.7574,3.7586,3.7599,3.7662,3.7683,3.7459,3.7459,3.7459,0,0,3.6946,3.6971,3.7011,3.7085,3.7112,3.7177,3.7109,3.7181,3.7229,3.7184,3.7277,3.7293,3.7334,3.7442,3.7491,3.746,3.7662,3.7599,3.7609,3.7614,3.7674,3.7695,3.7714,3.7466,3.7465,3.7464,0,0,3.7089,3.7115,3.7198,3.7226,3.7268,3.7271,3.7291,3.7326,3.7334,3.7427,3.7394,3.7451,3.7553,3.7583,3.7612,3.7765,3.7737,3.7783,3.7865,3.7927,3.7944,3.796,3.8014,3.8033,3.7795,3.7796,3.7796,0,3.7159,3.7256,3.7245,3.7318,3.7351,3.7313,3.7397,3.7425,3.7483,3.7506,3.7471,3.7597,3.7622,3.7736,3.7773,3.7798,3.782,3.7779,3.7943,3.7958,3.7972,3.8024,3.8044,3.7801,3.78,3.78,3.7799,0,3.7339,3.7407,3.7469,3.7525,3.7565,3.7644,3.7644,3.7686,3.7673,3.768,3.7774,3.7802,3.7862,3.7888,3.7877,3.8001,3.798,3.7944,3.788,3.7999,3.8047,3.8067,3.7808,3.7806,3.7805,3.7804,0,0,3.7531,3.7579,3.7602,3.7626,3.7668,3.772,3.7796,3.7854,3.789,3.7931,3.7994,3.8081,3.8047,3.808,3.8071,3.8125,3.8243,3.8082,3.8082,3.811,3.8381,3.8408,3.8431,3.8225,3.8229,3.8232,3.8377,0,3.7676,3.781,3.7801,3.7926,3.7988,3.7952,3.8018,3.8051,3.806,3.8113,3.8122,3.8183,3.8134,3.8154,3.8206,3.8218,3.8297,3.8207,3.8284,3.8287,3.8275,3.8456,3.8485,3.8621,3.8396,3.8399,3.8401,0,3.7864,3.791,3.8041,3.8073,3.8098,3.8158,3.821,3.8262,3.8298,3.83,3.8336,3.8317,3.8394,3.8328,3.8433,3.8372,3.8403,3.8413,3.8418,3.8425,3.8351,3.8468,3.8665,3.8685,3.8431,3.8429,3.8427,0,3.7989,3.8085,3.8175,3.8197,3.8236,3.8279,3.8298,3.833,3.8365,3.841,3.8432,3.8486,3.8516,3.8558,3.8554,3.8507,3.8661,3.8595,3.8665,3.8665,3.8699,3.8697,3.8904,3.8719,3.8719,3.8719,3.8718,0,3.8152,3.8234,3.8232,3.8288,3.8378,3.8367,3.8456,3.847,3.8499,3.8556,3.8528,3.8583,3.8574,3.8629,3.8627,3.8714,3.8727,3.8731,3.8729,3.8734,3.8733,3.8754,3.8744,3.8724,3.8723,3.8722,3.8721,0,3.8308,3.831,3.8407,3.8435,3.8444,3.851,3.8534,3.8587,3.8592,3.8665,3.8681,3.869,3.8753,3.8753,3.8825,3.8823,3.893,3.8917,3.8918,3.8915,3.8985,3.8978,3.9212,3.9242,3.9038,3.904,3.9042,0,3.8412,3.8474,3.8509,3.8545,3.8566,3.8625,3.866,3.8651,3.8689,3.8734,3.8781,3.8841,3.8888,3.899,3.9003,3.9057,3.9046,3.9124,3.9054,3.9056,3.9047,3.9043,3.9049,3.9138,3.914,3.9142,3.9143,0,3.8596,3.8593,3.8645,3.8697,3.874,3.8781,3.8818,3.885,3.8845,3.8889,3.8952,3.8989,3.9061,3.9121,3.9173,3.9192,3.9167,3.9165,3.9184,3.9189,3.9186,3.9188,3.8955,3.916,3.9158,3.9157,3.9156,3.9156,3.8728,3.8781,3.8814,3.8872,3.8899,3.8935,3.8985,3.8997,3.9049,3.9107,3.9099,3.9169,3.9203,3.927,3.9293,3.9348,3.9321,3.9348,3.9355,3.9362,3.937,3.9178,3.9357,3.9357,3.9357,3.9356,3.9356,0,3.891,3.8929,3.8983,3.9036,3.9082,3.9054,3.9093,3.9134,3.9196,3.9229,3.9276,3.9348,3.9405,3.9422,3.9477,3.9518,3.9508,3.9533,3.953,3.9534,3.9391,3.9369,3.954,3.954,3.954,3.954,3.954,3.954,3.901,3.9098,3.9099,3.9199,3.9218,3.9286,3.9311,3.9344,3.937,3.9451,3.9499,3.9509,3.9535,3.9592,3.9643,3.9646,3.9668,3.9698,3.9696,3.9563,3.9544,3.9527,3.9506,3.9702,3.9703,3.9835,3.9836,3.9837]}]]